DECAYED

CZ-6A DEB, 61412 (Decayed)

Orbit data source: Space-Track

CZ-6A DEB, 61412 was space debris in LEO originally from a launch on Tue, 06 Aug 2024 UTC launched from the Taiyaun Space Center, China (TSC). Debris objects in space refer to the collection of defunct objects orbiting the Earth. Examples of debris include non-operational satellites, rocket bodies, and fragments generated from explosions, collisions, or faulty payload assembly.

Not visible in the next 10 days
Identifier
61412, 2024-140YD
Orbit
Decayed
Country
Flag of CNCN / PRC
Related business
Manufacturer
SAST
Mission
Decayed spacecraft
Bus & Motor
Unknown
Mass
Unknown
Launch date (UTC)
2024-08-06 (2 years ago)
Launch vehicle
Unknown
Launch site
Taiyaun Space Center, China (TSC)
Object type
Payload
Rocket body
Debris
Shape & HBR
Unknown shape, 0.1 m
Radar Cross Section
Medium (>0.1 m² and <1 m²)

Expand to show TLE details & history
Last TLE update: 1 year ago

TLE from 1 year ago
0 CZ-6A DEB
1 61412U 24140YD  25096.90738311  .09634062  36092+0  31534-1 0  9995
2 61412  89.2785 330.6998 0017655 217.1312 142.8757 16.00513088 31150
Epoch: 2025-04-06T21:46Z
TLE epoch observation values (Epoch: 2025-04-06T21:46:37.900Z)
Latitude
-0.00007°
Longitude
168.61145°
Altitude
285.677 km
Speed
7.731 km/s
True Right ascension
22h 02m 47s
True Declination
0° 00' 00"
Sunlit
Object was in daylight at epoch
Visualization orbit readout
Latitude
Unknown
Longitude
Unknown
Altitude
Unknown
Speed
Unknown
Apparent Right ascension
Unknown
Apparent Declination
Unknown
Sunlit
N/A
Visualization observer readout
Local Sidereal Time
07:21:44
Azimuth
Unknown
Elevation
Unknown
Doppler factor
Unknown
Orbital elements
Apogee altitude
281.43 km
Perigee altitude
257.956 km
Semi-major axis
6,647.83 km
Eccentricity
0.00177
Inclination
89.2785°
RAAN
330.6998°
Arg. of periapsis
217.1312°
True anomaly
142.99759°
Mean anomaly
142.8757°
Eccentric anomaly
142.93667°
Mean motion
4.00427 °/min
Orbital period
89.9 mins
BSTAR
0.031534
Loading maneuver chart data...
Computing Atmospheric mass density...
Loading historical data...
Loading historical data...
Loading historical data...
Loading historical data...
Loading historical data...
Loading historical data...
Loading historical data...

Documentation

Showing up to 5 results
|